{"data":{"norad_id":67242,"intl_designator":"2025-311G","name":"HULIANWANG DIGUI-134","alt_names":[],"object_type":"PAYLOAD","status":"ACTIVE","operator":null,"country":"PRC","launch_date":"2025-12-25","launch_site_code":"WSC","launch_vehicle":null,"mission":null,"orbit_class":"UNKNOWN","rcs_meters":null,"size_class":null,"mass_kg":null,"dimensions":null,"purposes":[],"wikipedia_slug":null,"has_3d_model":false,"image_url":null,"decayed_at":null,"tle_current":{"epoch":"2026-09-20T22:10:17.183136Z","epoch_age_seconds":66519,"freshness":"FRESH","line1":"1 67242U 25311G   26263.92380999 -.00000098  00000+0  56254-4 0  9994","line2":"2 67242  50.0023 132.4033 0000189 344.3573  15.7294 13.29325464 36079","mean_motion":13.29325464,"eccentricity":1.89e-5,"inclination_deg":50.0023,"raan_deg":132.4033,"arg_perigee_deg":344.3573,"mean_anomaly_deg":15.7294,"bstar":5.6254e-5,"rev_number":3607,"period_min":108.32561618635,"perigee_km":1149.166326569,"apogee_km":1149.4508640125,"semimajor_km":7527.4455952908,"source":"CELESTRAK","updated_at":"2026-09-21T09:00:16.509602Z"}}}